Overview Statistics Trail Chart Weather Telemetry Raw packets
 

This is the latest recevied weather packets stored in our database for station/object WX0ABE-13. If no packets are shown the sender has not sent any weather packets the latest 10 day(s).

<< 95 96 97 98 99 100 101 >>
Time Temp. Humidity Pressure Rain* Wind** Luminosity Snow
1787653127 20° C 65% 1021.8 hPa 0 mm - 0 W/m² -
1787652822 20° C 64% 1021.4 hPa 0 mm - 0 W/m² -
1787652518 20° C 64% 1021.6 hPa 0 mm - 0 W/m² -
1787652217 20° C 63% 1021.6 hPa 0 mm - 0 W/m² -
1787651912 20° C 63% 1021.4 hPa 0 mm - 0 W/m² -
1787651611 20° C 65% 1021.4 hPa 0 mm - 0 W/m² -
1787651310 20.56° C 64% 1021.3 hPa 0 mm - 0 W/m² -
1787651007 20.56° C 63% 1021.2 hPa 0 mm - 0 W/m² -
1787650702 21.11° C 61% 1021.1 hPa 0 mm - 0 W/m² -
1787650398 21.11° C 60% 1021.3 hPa 0 mm - 0 W/m² -
1787650094 21.11° C 59% 1021.2 hPa 0 mm - 0 W/m² -
1787649788 21.11° C 58% 1021.2 hPa 0 mm - 0 W/m² -
1787649483 21.11° C 59% 1020.9 hPa 0 mm - 0 W/m² -
1787649178 20.56° C 60% 1020.8 hPa 0 mm - 0 W/m² -
1787648872 21.11° C 60% 1020.9 hPa 0 mm - 0 W/m² -
1787648572 21.11° C 60% 1020.7 hPa 0 mm - 0 W/m² -
1787648270 21.11° C 59% 1020.7 hPa 0 mm - 0 W/m² -
1787647964 21.11° C 59% 1020.3 hPa 0 mm - 0 W/m² -
1787647661 21.11° C 58% 1020.4 hPa 0 mm - 0 W/m² -
1787647360 21.67° C 57% 1020.3 hPa 0 mm - 0 W/m² -
1787647060 21.67° C 57% 1020.3 hPa 0 mm - 0 W/m² -
1787646755 22.22° C 56% 1020.4 hPa 0 mm - 0 W/m² -
1787646455 22.22° C 54% 1020.4 hPa 0 mm - 0 W/m² -
1787646151 22.22° C 53% 1020.3 hPa 0 mm - 0 W/m² -
1787645846 22.78° C 53% 1020.2 hPa 0 mm - 0 W/m² -

* Rain latest hour (hover to see other rain measurements)
** Current wind speed in m/s (hover to see current wind gust speed)